Weather History for CXZU - January, 2013

Change the Weather History Date:

Tuesday, January 15, 2013

  Actual Average Record
Temperature  
Mean Temperature 36 °F -  
Max Temperature 51 °F - - ()
Min Temperature 21 °F - - ()
Degree Days  
Heating Degree Days 29    
Moisture  
Dew Point 24 °F    
Average Humidity 44    
Maximum Humidity 82    
Minimum Humidity 14    
Precipitation  
Precipitation 0.00 in - - ()
Sea Level Pressure  
Sea Level Pressure 29.78 in    
Wind  
Wind Speed 15 mph ()    
Max Wind Speed 31 mph    
Max Gust Speed 51 mph    
T = Trace of Precipitation, MM = Missing Value Source: Averaged Metar Reports

Daily Weather History Graph

Daily Weather History Graph

Search for Another Location

Airport or City:

Trip Planner

Search our weather history database for the weather conditions in past years. The results will help you decide how hot, cold, wet, or windy it might be!

Date:

Astronomy

Jan. 15, 2013 Rise Set
Actual Time 8:53 AM MST 4:52 PM MST
Civil Twilight 8:12 AM MST 5:33 PM MST
Nautical Twilight 7:27 AM MST 6:18 PM MST
Astronomical Twilight 6:44 AM MST 7:01 PM MST
Moon 10:12 AM MST (1/15) 10:40 PM MST (1/15)
Length of Visible Light 9h 21m
Length of Day
7h 58m
Waxing Crescent, 20% of the Moon is Illuminated
Jan 15
Waxing Crescent
Jan 18
First Quarter
Jan 26
Full
Feb 3
Last Quarter
Feb 10
New

Hourly Weather History & Observations

Time (MST) Temp. Windchill Dew Point Humidity Pressure Visibility Wind Dir Wind Speed Gust Speed Precip Events Conditions
12:00 AM 35.1 °F 30.1 °F 30.0 °F 82% 29.80 in - West 5.8 mph - N/A   Unknown
1:00 AM 37.6 °F 31.6 °F 30.9 °F 77% 29.78 in - WNW 8.1 mph - N/A   Unknown
2:00 AM 39.0 °F 32.8 °F 30.7 °F 72% 29.76 in - WNW 9.2 mph - N/A   Unknown
3:00 AM 40.1 °F 33.2 °F 31.5 °F 71% 29.76 in - WNW 11.5 mph 19.6 mph N/A   Unknown
4:00 AM 39.9 °F 32.9 °F 31.8 °F 73% 29.76 in - NW 11.5 mph - N/A   Unknown
5:00 AM 41 °F - 32 °F 59% 29.74 in - WNW 12.7 mph - -  
5:00 AM 41.2 °F 34.1 °F 31.6 °F 69% 29.74 in - WNW 12.7 mph 18.4 mph N/A   Unknown
6:00 AM 41.5 °F 34.6 °F 31.1 °F 66% 29.74 in - NW 12.7 mph - N/A   Unknown
7:00 AM 43.0 °F 35.7 °F 30.4 °F 61% 29.74 in - NW 15.0 mph - N/A   Unknown
8:00 AM 45.3 °F 37.6 °F 28.4 °F 52% 29.78 in - NW 19.6 mph 25.3 mph N/A   Unknown
9:00 AM 46.2 °F 38.7 °F 26.8 °F 47% 29.81 in - NW 19.6 mph 26.5 mph N/A   Unknown
10:00 AM 47.5 °F - 25.3 °F 42% 29.81 in - WNW 21.9 mph 28.8 mph N/A   Unknown
11:00 AM 48 °F - 24 °F 26% 29.81 in - NW 21.9 mph - -  
11:00 AM 48.0 °F - 24.1 °F 39% 29.81 in - NW 21.9 mph 32.2 mph N/A   Unknown
12:00 PM 49.6 °F - 22.1 °F 34% 29.79 in - NW 26.5 mph 40.3 mph N/A   Unknown
1:00 PM 50.7 °F - 21.2 °F 31% 29.78 in - NW 26.5 mph 39.1 mph N/A   Unknown
2:00 PM 51.6 °F - 19.6 °F 28% 29.78 in - NW 26.5 mph 40.3 mph N/A   Unknown
3:00 PM 50.7 °F - 18.1 °F 28% 29.78 in - WNW 26.5 mph 39.1 mph N/A   Unknown
4:00 PM 50.7 °F - 16.9 °F 26% 29.78 in - WNW 23.0 mph 34.5 mph N/A   Unknown
5:00 PM 51 °F - 16 °F 14% 29.78 in - WNW 23.0 mph - -  
5:00 PM 50.7 °F - 16.0 °F 25% 29.78 in - WNW 23.0 mph 38.0 mph N/A   Unknown
6:00 PM 50.4 °F - 16.3 °F 26% 29.78 in - WNW 21.9 mph 33.4 mph N/A   Unknown
7:00 PM 50.4 °F - 16.3 °F 26% 29.77 in - WNW 19.6 mph 27.6 mph N/A   Unknown
8:00 PM 50.5 °F - 17.1 °F 27% 29.76 in - WNW 20.7 mph 42.6 mph N/A   Unknown
9:00 PM 50.0 °F - 18.5 °F 29% 29.77 in - NW 20.7 mph 28.8 mph N/A   Unknown
10:00 PM 49.5 °F - 19.9 °F 31% 29.78 in - NW 21.9 mph 34.5 mph N/A   Unknown
11:00 PM 49 °F - 25 °F 26% 29.79 in - NW 31.1 mph - -  
11:00 PM 49.1 °F - 24.8 °F 39% 29.79 in - NW 31.1 mph 50.6 mph N/A   Unknown